Regional Weather Roundup
Issued by NWS

Home | Current Version | Previous Version | Text Only | Print | Product List | Glossary On
Versions: 1 2 3 4 5 6 7 8 9 10 11 12 13 14 15 16 17 18 19 20 21 22 23 24 25 26 27 28 29 30 31 32 33 34 35 36 37 38 39 40 41 42 43 44 45 46 47 48 49 50
000
ASUS43 KOAX 221610
RWRNE

WEATHER ROUNDUP FOR NEBRASKA
NATIONAL WEATHER SERVICE OMAHA NE
1100 AM CDT MON SEP 22 2014

NOTES: SATELLITE DATA IS BEING USED TO AUGMENT CLOUD COVER ABOVE
       12000 FEET.
       "FAIR" INDICATES FEW OR NO CLOUDS BELOW 12,000 FEET WITH NO
       SIGNIFICANT WEATHER AND/OR OBSTRUCTIONS TO VISIBILITY.

  * THESE STATIONS DO NOT REPORT WEATHER SUCH AS RAIN...SNOW OR FOG.

NEZ001>004-019>022-054>056-221700-
NEBRASKA PANHANDLE

CITY           SKY/WX    TMP DP  RH WIND       PRES   REMARKS
SCOTTSBLUFF    CLOUDY    63  48  58 SE9       30.14F
ALLIANCE       MOSUNNY   65  44  46 S18G24    30.15S
CHADRON        PTSUNNY   70  46  42 S16G25    30.08F
KIMBALL        LGT RAIN  56  50  80 SE9       30.17F
SIDNEY         LGT RAIN  63  47  55 S14       30.22R
$$

NEZ057>060-069>072-079>082-221700-
SOUTHWEST NEBRASKA

CITY           SKY/WX    TMP DP  RH WIND       PRES   REMARKS
NORTH PLATTE   PTSUNNY   65  45  48 S15       30.25F
IMPERIAL       CLOUDY    65  42  43 S16       30.23F
LEXINGTON      CLOUDY    63  50  61 S14       30.29F
MCCOOK         MOSUNNY   70  44  39 S10G20    30.27F
OGALLALA       PTSUNNY   66  45  46 S15G21    30.21F
$$

NEZ005>010-023>029-035>040-094-221700-
NORTH CENTRAL NEBRASKA

CITY           SKY/WX    TMP DP  RH WIND       PRES   REMARKS
VALENTINE      MOSUNNY   69  43  38 S16       30.19F
AINSWORTH      MOSUNNY   67  46  45 S17G25    30.23S
BROKEN BOW     PTSUNNY   65  46  50 S17G28    30.28S
O`NEILL        SUNNY     67  50  54 S16       30.26S
ORD            SUNNY     66  48  52 S14       30.27S
THEDFORD       CLOUDY    64  45  50 S13G18    30.23F
$$

NEZ041-046>049-061>064-073>077-083>087-221700-
SOUTH CENTRAL NEBRASKA

CITY           SKY/WX    TMP DP  RH WIND       PRES   REMARKS
GRAND ISLAND   SUNNY     67  48  50 S14       30.31S
AURORA         SUNNY     66  47  49 S10       30.31S
HASTINGS       SUNNY     65  46  50 S12       30.31S
HEBRON         SUNNY     68  47  47 S7        30.32S
HOLDREGE       MOSUNNY   63  47  55 S14       30.30F
KEARNEY *      MOSUNNY   64  48  55 S14       30.31S
YORK           SUNNY     64  52  63 S9        30.31S
$$

NEZ011>018-030>034-042>045-221700-
NORTHEAST NEBRASKA

CITY           SKY/WX    TMP DP  RH WIND       PRES   REMARKS
NORFOLK        SUNNY     66  49  54 S14       30.28F
ALBION         MOSUNNY   65  48  53 S12       30.29F
BLAIR          SUNNY     66  51  57 S9        30.32R
COLUMBUS *     SUNNY     63  50  63 S6        30.32S
FREMONT        SUNNY     65  52  62 S5        30.31S
TEKAMAH        SUNNY     68  52  56 S12       30.31S
WAYNE          SUNNY     66  49  54 S9        30.29F
$$

NEZ050>053-065>068-078-088>093-221700-
SOUTHEAST NEBRASKA

CITY           SKY/WX    TMP DP  RH WIND       PRES   REMARKS
LINCOLN        SUNNY     64  53  67 S6        30.33S
OMAHA EPPLEY   MOSUNNY   64  50  60 S8        30.32S
BEATRICE       SUNNY     65  49  55 S6        30.32S
FALLS CITY     SUNNY     66  52  60 SE6       30.32S
NEBRASKA CITY    N/A     65  46  50 S5        30.33S
PLATTSMOUTH    SUNNY     64  49  58 S7        30.32S
$$

NEZ044-045-051>053-067-221700-
OMAHA AREA

CITY           SKY/WX    TMP DP  RH WIND       PRES   REMARKS
OMAHA EPPLEY   MOSUNNY   64  50  60 S8        30.32S
BLAIR          SUNNY     66  51  57 S9        30.32R
FREMONT        SUNNY     65  52  62 S5        30.31S
MILLARD        SUNNY     65  52  62 S6        30.32S
OFFUTT AFB     SUNNY     65  56  73 S6        30.32S
PLATTSMOUTH    SUNNY     64  49  58 S7        30.32S
WAHOO          FAIR      66  49  54 S7        30.31S
$$


USA.gov is the U.S. government's official web portal to all federal, state and local government web resources and services.